Find Kosmos-663

NORAD ID: 7349 Int'l Des: 1974-048 Owner: VMF Country: SU operational
LEOCIRCULARPOLAR

当前视图

正在加载3D地球...

About Kosmos-663

Kosmos-663 (NORAD 7349) is a satellite by VMF of SU. It operates in LEO, CIRCULAR, POLAR orbit

即将过境

Passes for default location (London). Set your location on the main map for personalized predictions.

高度历史

Loading altitude history...

两行轨道根数

1 7349U 74048A 26194.88433904 .00000037 00000-0 22838-4 0 9994
2 7349 82.9516 154.8977 0025085 172.9131 247.9453 13.75862138611883
Epoch: Jul 13, 2026 • Age: 6 hours

当前状态

高度 987.1 km
远地点 / 近地点 N/A
速度 7.36 km/s
星下点 -48.43°S, 1.58°E
类型 other

Most Searched